"Pseudo-MPEC" for P22oVNN

Created 2026 Aug 12 23:35:23 UT using Find_Orb

Click here for an explanation of pseudo-MPECs

 
 Astrometry: 
     P22oVNN*0C2026 08 07.33461821 52 52.611+19 43 59.20   ~87A5 21.62wXNEOCPF52
     P22oVNN 0C2026 08 07.34678021 52 51.677+19 44 26.54   ~87A5 22.03wXNEOCPF52
     P22oVNN 0C2026 08 07.35890621 52 50.735+19 44 53.75   ~87A5 21.83wXNEOCPF52
     P22oVNN 0C2026 08 07.37102021 52 49.790+19 45 20.99   ~87A5 21.62wXNEOCPF52
     P22oVNN 0C2026 08 07.42771021 52 45.284+19 47 28.17   ~87HK 21.49GVNEOCPF51
     P22oVNN 0C2026 08 07.42853121 52 45.218+19 47 30.00   ~87HK 21.46GVNEOCPF51
     P22oVNN 0C2026 08 07.42937021 52 45.148+19 47 31.89   ~87HK 21.64GVNEOCPF51
     P22oVNN KC2026 08 08.28990121 51 40.31 +20 19 19.4    ~887Z 22.3 GVNEOCPH21
     P22oVNN KC2026 08 08.29500321 51 39.88 +20 19 30.8    ~887Z 21.6 GVNEOCPH21
     P22oVNN KC2026 08 08.29750621 51 39.67 +20 19 36.7    ~887Z 21.8 GVNEOCPH21
     P22oVNN 1C2026 08 12.90845021 45 27.220+23 05 22.40   ~8CNZ 20.6 GXNEOCP033
     P22oVNN 1C2026 08 12.91927021 45 26.258+23 05 45.40   ~8CNZ 20.4 GXNEOCP033
     P22oVNN 1C2026 08 12.92288021 45 25.938+23 05 52.80   ~8CNZ 20.5 GXNEOCP033

Station data:
(033) Karl Schwarzschild Observatory, Tautenburg  (N50.980139 E11.711240)
   Germany.  Observer B. Stecklum. 1.34-m f/3 Schmidt + CCD.
(F51) Pan-STARRS 1, Haleakala  (N20.707234 W156.255910)  US/Hawaii.
   Observers J. Herman, T. Lowe, P. Minguez, A. Schultz, I. Smith. Measurers
   K. Chambers, T. de Boer, J. Fairlamb, H. Gao, M. Huber, C.-C. Lin, E.
   Magnier, Y. Ramanjooloo, R. Wainscoat, R. Weryk. 1.8-m Ritchey-Chrétien +
   CCD.
(F52) Pan-STARRS 2, Haleakala  (N20.707382 W156.255910)  US/Hawaii.
   Observers J. Herman, T. Lowe, P. Minguez, A. Schultz, I. Smith. Measurers
   K. Chambers, T. de Boer, J. Fairlamb, H. Gao, M. Huber, C.-C. Lin, E.
   Magnier, Y. Ramanjooloo, R. Wainscoat, R. Weryk. 1.8-m Ritchey-Chrétien +
   CCD.
(H21) Astronomical Research Observatory, Westfield  (N39.483054 W87.968270)
   US/Illinois.  Observer R. Holmes. Measurers S. Foglia, L. Buzzi, T.
   Linder, R. Holmes. 0.40-m f/5.32 astrograph + CCD.

Orbital elements:  P22oVNN
   Perihelion 2026 Oct 9.876102 +/- 0.527 TT = 21:01:35.2 (JD 2461323.376102)
Epoch 2026 Aug 12.0 TT = JDT 2461264.5   Earth MOID: 0.5814      AutoNEOCP
M 343.718260040 +/- 0.47            (J2000 ecliptic)
n   0.276542421 +/- 0.00584         Peri.   71.906101 +/- 0.6
a   2.333251433 +/- 0.0329          Node   293.294802 +/- 0.22
e   0.38262663 +/- 0.00608          Incl.   22.782613 +/- 0.24
P   3.56404                H 20.63  G  0.15   U  9.3
q 1.440487279 +/- 0.00617    Q 3.226015587 +/- 0.0596
From 13 observations 2026 Aug. 7-12; mean residual 0".12
Residuals in arcseconds: 
260807 F52  .26-  .11+    260807 F51  .05+  .04-    260812 033  .05-  .10-    
260807 F52  .06-  .05+    260807 F51  .00   .02-    260812 033  .01-  .14+    
260807 F52  .05+  .04-    260808 H21  .22+  .14-    260812 033  .02+  .05-    
260807 F52  .15+  .04-    260808 H21  .01-  .02-    
260807 F51  .05+  .03-    260808 H21  .12-  .34+    

Ephemerides (geocentric):
Date (UTC) HH   RA             Dec           delta  r     elong  mag " sig PA
---- --------  ------------   ------------  ------ ------ -----  --- --------
2026 08 13 00  21 45 19.105   +23 08 41.30  .59604 1.5269 141.8 21.6 .108  99
2026 08 13 01  21 45 15.542   +23 10 08.42  .59595 1.5268 141.8 21.6 .123  94
2026 08 13 02  21 45 11.976   +23 11 35.48  .59586 1.5266 141.8 21.6 .139  90
2026 08 13 03  21 45 08.407   +23 13 02.48  .59577 1.5265 141.8 21.6 .156  86
2026 08 13 04  21 45 04.836   +23 14 29.43  .59567 1.5264 141.8 21.6 .174  84
2026 08 13 05  21 45 01.261   +23 15 56.33  .59558 1.5263 141.8 21.6 .192  81
2026 08 13 06  21 44 57.683   +23 17 23.17  .59549 1.5262 141.8 21.6 .210  79
2026 08 13 07  21 44 54.102   +23 18 49.96  .59540 1.5261 141.8 21.6 .229  78
2026 08 13 08  21 44 50.519   +23 20 16.69  .59531 1.5259 141.8 21.6 .248  76
2026 08 13 09  21 44 46.932   +23 21 43.37  .59522 1.5258 141.8 21.6 .268  75
2026 08 13 10  21 44 43.343   +23 23 09.99  .59513 1.5257 141.8 21.6 .288  74
2026 08 13 11  21 44 39.751   +23 24 36.56  .59504 1.5256 141.7 21.6 .309  73
2026 08 13 12  21 44 36.156   +23 26 03.07  .59495 1.5255 141.7 21.6 .329  72
2026 08 13 13  21 44 32.557   +23 27 29.53  .59486 1.5254 141.7 21.6 .350  71
2026 08 13 14  21 44 28.957   +23 28 55.93  .59478 1.5252 141.7 21.6 .372  71
2026 08 13 15  21 44 25.353   +23 30 22.27  .59469 1.5251 141.7 21.6 .393  70
2026 08 13 16  21 44 21.746   +23 31 48.56  .59460 1.5250 141.7 21.6 .415  69
2026 08 13 17  21 44 18.137   +23 33 14.80  .59451 1.5249 141.7 21.6 .437  69
2026 08 13 18  21 44 14.524   +23 34 40.97  .59443 1.5248 141.7 21.6 .460  68
2026 08 13 19  21 44 10.909   +23 36 07.09  .59434 1.5247 141.7 21.6 .482  68
2026 08 13 20  21 44 07.291   +23 37 33.16  .59425 1.5245 141.7 21.6 .505  68
2026 08 13 21  21 44 03.671   +23 38 59.16  .59417 1.5244 141.7 21.6 .529  67
2026 08 13 22  21 44 00.047   +23 40 25.11  .59408 1.5243 141.7 21.6 .552  67
2026 08 13 23  21 43 56.421   +23 41 51.00  .59399 1.5242 141.7 21.6 .576  66
2026 08 14 00  21 43 52.792   +23 43 16.84  .59391 1.5241 141.7 21.6 .600  66
2026 08 14 01  21 43 49.160   +23 44 42.62  .59382 1.5240 141.6 21.6 .624  66
2026 08 14 02  21 43 45.525   +23 46 08.34  .59374 1.5238 141.6 21.6 .649  66
2026 08 14 03  21 43 41.888   +23 47 34.00  .59366 1.5237 141.6 21.6 .674  65
2026 08 14 04  21 43 38.248   +23 48 59.61  .59357 1.5236 141.6 21.6 .699  65
2026 08 14 05  21 43 34.605   +23 50 25.16  .59349 1.5235 141.6 21.5 .724  65
2026 08 14 06  21 43 30.960   +23 51 50.65  .59341 1.5234 141.6 21.5 .750  64
2026 08 14 07  21 43 27.312   +23 53 16.08  .59332 1.5233 141.6 21.5 .775  64
2026 08 14 08  21 43 23.661   +23 54 41.45  .59324 1.5231 141.6 21.5 .802  64
2026 08 14 09  21 43 20.007   +23 56 06.77  .59316 1.5230 141.6 21.5 .828  64
2026 08 14 10  21 43 16.351   +23 57 32.02  .59308 1.5229 141.6 21.5 .854  64
2026 08 14 11  21 43 12.692   +23 58 57.22  .59300 1.5228 141.6 21.5 .881  63
2026 08 14 12  21 43 09.031   +24 00 22.36  .59291 1.5227 141.6 21.5 .908  63
2026 08 14 13  21 43 05.367   +24 01 47.44  .59283 1.5226 141.6 21.5 .936  63
2026 08 14 14  21 43 01.700   +24 03 12.46  .59275 1.5225 141.5 21.5 .963  63
2026 08 14 15  21 42 58.031   +24 04 37.42  .59267 1.5223 141.5 21.5 0.99  63
2026 08 14 16  21 42 54.359   +24 06 02.33  .59259 1.5222 141.5 21.5 1.02  63
2026 08 14 17  21 42 50.684   +24 07 27.17  .59251 1.5221 141.5 21.5 1.05  62
2026 08 14 18  21 42 47.007   +24 08 51.95  .59243 1.5220 141.5 21.5 1.08  62
2026 08 14 19  21 42 43.328   +24 10 16.68  .59236 1.5219 141.5 21.5 1.11  62
2026 08 14 20  21 42 39.645   +24 11 41.34  .59228 1.5218 141.5 21.5 1.13  62
2026 08 14 21  21 42 35.961   +24 13 05.94  .59220 1.5217 141.5 21.5 1.16  62
2026 08 14 22  21 42 32.273   +24 14 30.49  .59212 1.5215 141.5 21.5 1.19  62
2026 08 14 23  21 42 28.584   +24 15 54.97  .59204 1.5214 141.5 21.5 1.22  61